TimeEDT,TemperatureF,Dew PointF,Humidity,Sea Level PressureIn,VisibilityMPH,Wind Direction,Wind SpeedMPH,Gust SpeedMPH,PrecipitationIn,Events,Conditions,WindDirDegrees,DateUTC
12:54 AM,50.0,48.0,93,30.32,10.0,Calm,Calm,-,N/A,,Scattered Clouds,0,2013-05-03 04:54:00
1:54 AM,48.9,46.9,93,30.30,10.0,ENE,3.5,-,N/A,,Scattered Clouds,70,2013-05-03 05:54:00
2:54 AM,48.0,45.0,89,30.29,10.0,Calm,Calm,-,N/A,,Scattered Clouds,0,2013-05-03 06:54:00
3:54 AM,46.0,44.1,93,30.29,10.0,NNE,4.6,-,N/A,,Partly Cloudy,30,2013-05-03 07:54:00
4:54 AM,48.0,46.0,93,30.30,10.0,NE,6.9,-,N/A,,Partly Cloudy,40,2013-05-03 08:54:00
5:54 AM,50.0,48.0,93,30.31,10.0,NE,9.2,-,N/A,,Mostly Cloudy,40,2013-05-03 09:54:00
6:54 AM,51.1,48.9,92,30.32,8.0,NNE,9.2,-,N/A,,Overcast,30,2013-05-03 10:54:00
7:54 AM,53.1,51.1,93,30.33,9.0,NE,8.1,-,N/A,,Overcast,50,2013-05-03 11:54:00
8:12 AM,53.6,51.8,94,30.33,10.0,NE,8.1,-,N/A,,Overcast,40,2013-05-03 12:12:00
8:54 AM,55.9,51.1,84,30.34,10.0,ENE,6.9,-,N/A,,Overcast,60,2013-05-03 12:54:00
9:24 AM,59.0,51.8,77,30.32,10.0,NE,11.5,20.7,N/A,,Overcast,50,2013-05-03 13:24:00
9:54 AM,60.1,51.1,72,30.34,10.0,ENE,8.1,-,N/A,,Overcast,70,2013-05-03 13:54:00
10:54 AM,64.9,50.0,58,30.35,10.0,East,11.5,-,N/A,,Overcast,80,2013-05-03 14:54:00
11:54 AM,66.0,46.0,48,30.35,10.0,ESE,12.7,18.4,N/A,,Overcast,110,2013-05-03 15:54:00
12:54 PM,68.0,39.0,35,30.33,10.0,ESE,17.3,24.2,N/A,,Mostly Cloudy,110,2013-05-03 16:54:00
1:54 PM,68.0,37.9,33,30.32,10.0,ENE,16.1,23.0,N/A,,Mostly Cloudy,60,2013-05-03 17:54:00
2:54 PM,66.9,41.0,39,30.32,10.0,ENE,15.0,21.9,N/A,,Mostly Cloudy,70,2013-05-03 18:54:00
3:54 PM,64.9,39.0,39,30.30,10.0,ENE,13.8,-,N/A,,Overcast,60,2013-05-03 19:54:00
4:54 PM,63.0,39.9,43,30.30,10.0,ENE,13.8,23.0,N/A,,Mostly Cloudy,70,2013-05-03 20:54:00
5:54 PM,60.1,39.9,47,30.31,10.0,ENE,13.8,20.7,N/A,,Mostly Cloudy,70,2013-05-03 21:54:00
6:54 PM,57.0,41.0,55,30.31,10.0,ENE,11.5,-,N/A,,Mostly Cloudy,70,2013-05-03 22:54:00
7:54 PM,55.0,41.0,59,30.32,10.0,ENE,8.1,-,N/A,,Mostly Cloudy,70,2013-05-03 23:54:00
8:54 PM,52.0,42.1,69,30.32,10.0,ENE,5.8,-,N/A,,Mostly Cloudy,70,2013-05-04 00:54:00
9:54 PM,50.0,43.0,77,30.34,10.0,ENE,3.5,-,N/A,,Scattered Clouds,60,2013-05-04 01:54:00
10:54 PM,48.9,43.0,80,30.32,10.0,NE,5.8,-,N/A,,Scattered Clouds,50,2013-05-04 02:54:00
11:54 PM,48.0,43.0,83,30.31,10.0,NE,6.9,-,N/A,,Scattered Clouds,40,2013-05-04 03:54:00